Terminal Aerodrome Forecast
Issued by NWS Sterling, VA

Home | Current Version | Previous Version | Text Only | Print | Product List | Glossary On
Versions: 1 2 3 4 5 6 7 8 9 10 11 12 13 14 15 16 17 18 19 20 21 22 23 24 25 26 27 28 29 30
000
FTUS41 KLWX 181600 AAB
TAFIAD
TAF AMD
KIAD 181619Z 1816/1918 31011G20KT P6SM BKN040
     FM182200 31008KT P6SM SCT130
     FM190200 31006KT P6SM BKN110
     FM190800 30006KT P6SM SCT090
     FM191500 31010KT P6SM FEW040=

USA.gov is the U.S. government's official web portal to all federal, state and local government web resources and services.